[Iaude] MPEC A35: 2024 AN [a=1.61,e=0.43,i=1.7,H=26.4]
    mpec at marsden.cfa.harvard.edu 
    mpec at marsden.cfa.harvard.edu
       
    Thu Jan  4 08:29:48 EST 2024
    
    
  
M.P.E.C. 2024-A35                               Issued 2024 January 4, 13:27 UT
     The Minor Planet Electronic Circulars contain information on unusual
         minor planets, routine data on comets and natural satellites,
         and occasional editorial announcements.  They are published
    on behalf of Division F of the International Astronomical Union by the
          Minor Planet Center, Smithsonian Astrophysical Observatory,
                          Cambridge, MA 02138, U.S.A.
			  
             Prepared using the Tamkin Foundation Computer Network
                              MPC at CFA.HARVARD.EDU
            URL https://www.minorplanetcenter.net/    ISSN 1523-6714
                                    2024 AN                                     
Observations:
     K24A00N*1C2024 01 01.38639508 28 16.028+35 01 46.20         20.57GVEA035G96
     K24A00N 1C2024 01 01.39254508 28 14.833+35 01 05.59         21.03GVEA035G96
     K24A00N 1C2024 01 01.39867908 28 13.490+35 00 24.77         21.13GVEA035G96
     K24A00N 1C2024 01 01.40481408 28 12.212+34 59 44.88         21.29GVEA035G96
     K24A00N 1C2024 01 01.51070908 27 51.060+34 47 57.90         21.28GVEA035G96
     K24A00N 1C2024 01 01.51184208 27 50.720+34 47 48.60         21.19GVEA035G96
     K24A00N 1C2024 01 01.51231508 27 50.550+34 47 42.80               VEA035G96
     K24A00N 7C2024 01 02.06758508 26 46.493+33 51 18.62         20.9 GVEA035Z84
     K24A00N 7C2024 01 02.07393908 26 45.316+33 50 41.84         21.1 GVEA035Z84
     K24A00N 7C2024 01 02.08229508 26 43.739+33 49 52.81               VEA035Z84
     K24A00N  C2024 01 03.31716308 24 25.775+32 00 54.24         21.0 GVEA035H01
     K24A00N  C2024 01 03.32211808 24 24.978+32 00 30.81         21.2 GVEA035H01
     K24A00N KC2024 01 03.33024008 24 24.300+31 59 55.50         21.39GVEA035I52
     K24A00N  C2024 01 03.33232508 24 23.349+31 59 42.76         20.8 GVEA035H01
     K24A00N KC2024 01 03.33277608 24 23.870+31 59 42.90         21.85GVEA035I52
     K24A00N KC2024 01 03.33531808 24 23.470+31 59 31.50         21.18GVEA035I52
     K24A00N  C2024 01 03.33999708 24 22.103+31 59 06.37         21.2 GVEA035H01
Observer details:
G96 Mt. Lemmon Survey.  Observer K. W. Wierzchos.  Measurers E. C. Beshore, D.
    Fay, J. B. Fazekas, D. C. Fuls, A. R. Gibbs, A. D. Grauer, H. Groeller, J.
    K. Hogan, R. A. Kowalski, S. M. Larson, G. J. Leonard, D. Rankin, R. L.
    Seaman, F. C. Shelly, K. W. Wierzchos.  1.5-m reflector + 10K CCD.
H01 Magdalena Ridge Observatory, Socorro.  Observers W. H. Ryan, E. V. Ryan.
    Measurer W. H. Ryan.  2.4-m f/8.9 Ritchey-Chretien + CCD.
I52 Steward Observatory, Mt. Lemmon Station.  Observer R. A. Kowalski.
    Measurers E. C. Beshore, D. Fay, J. B. Fazekas, D. C. Fuls, A. R. Gibbs,
    A. D. Grauer, H. Groeller, J. K. Hogan, R. A. Kowalski, S. M. Larson, G.
    J. Leonard, D. Rankin, R. L. Seaman, F. C. Shelly, K. W. Wierzchos.  1.0-m
    prime focus + CCD.
Z84 Calar Alto-Schmidt.  Observers F. Ocana, R. Kresken, M. Micheli, L.
    Conversi.  Measurers F. Ocana, M. Micheli.  0.8-m f/3 Schmidt + CCD.
Orbital elements:
2024 AN                                                  Earth MOID = 0.0183 AU
Epoch 2023 Sept. 13.0 TT = JDT 2460200.5                Veres                   
M 326.33412              (2000.0)            P               Q                  
n   0.48152677     Peri.  101.56304     +0.62651008     -0.77909368             
a   1.6120893      Node   309.62056     +0.70333132     +0.57746204             
e   0.4287566      Incl.    1.66042     +0.33587225     +0.24403000             
P   2.05           H   26.49          G   0.15           U   9                  
Residuals in seconds of arc
240101 G96  1.1-  0.5+    240101 G96  0.5-  2.2-    240103 I52  0.2+  0.2+
240101 G96  0.3+  0.2+    240102 Z84  0.3-  0.0     240103 H01  0.1+  0.1+
240101 G96  0.2-  0.2-    240102 Z84  0.0   0.2+    240103 I52  0.1-  0.5-
240101 G96  0.1+  0.3+    240102 Z84  0.0   0.0     240103 I52  0.0   0.0
240101 G96 (2.1+  2.1+)   240103 H01  0.1-  0.1+    240103 H01  0.0   0.0
240101 G96  0.5+  0.4+    240103 H01  0.1-  0.0
Ephemeris:
2024 AN                  a,e,i = 1.61, 0.43, 2                   q = 0.9209
Date    TT    R. A. (2000) Decl.     Delta      r    Elong.  Phase     V
2023 12 05    19 57 35.2 -04 10 50   0.08518 0.9336    50.4   125.6    26.3
...
2023 12 20    19 17 55.3 +43 40 06   0.02115 0.9769    70.1   108.7    22.2
...
2023 12 28    08 46 26.4 +47 30 00   0.03362 1.0104   142.9    36.0    20.6
...
2024 01 03    08 24 57.0 +32 27 08   0.06043 1.0393   157.2    21.5    21.5
2024 01 04    08 23 15.1 +31 08 58   0.06519 1.0444   158.8    19.9    21.7
2024 01 05    08 21 45.2 +30 01 11   0.07002 1.0495   160.3    18.4    21.8
...
2024 01 11    08 15 11.7 +25 31 35   0.1002  1.0818   168.2    10.7    22.3
...
2024 01 19    08 09 51.0 +22 30 25   0.1440  1.1277   177.1     2.5    22.8
...
2024 02 03    08 06 14.3 +19 56 19   0.2401  1.2200   166.2    11.1    24.5
M. P. C. Staff               (C) Copyright 2024 MPC           M.P.E.C. 2024-A35
    
    
More information about the Iaude
mailing list